Location: Shenandoah County Park
(38.9356°N, 78.4524°W)
Time: 01:36:30
(UTC-05:00)

Altair - Visible Passes

Search period start: 06 February 2023 00:00
Search period end: 16 February 2023 00:00
Orbit: 1501 x 1683 km, 47.2° (Epoch: 05 February)

Date Brightness Start Highest point End Pass type
(mag) Time Alt. Az. Time Alt. Az. Time Alt. Az.
06 Feb 7.6 18:23:35 10° SW 18:33:06 82° SE 18:42:22 13° ENE visible
06 Feb 7.8 20:29:01 10° W 20:38:34 57° N 20:40:24 51° NNE visible
06 Feb 9.1 22:35:03 10° WNW 22:38:26 24° WNW 22:38:26 24° WNW visible
07 Feb 7.6 17:58:27 10° SW 18:07:55 77° SE 18:17:47 10° ENE visible
07 Feb 7.9 20:03:43 10° W 20:13:15 58° NNW 20:16:41 41° NE visible
07 Feb 8.8 22:09:47 10° WNW 22:14:44 33° NW 22:14:44 33° NW visible
08 Feb 7.8 19:38:26 10° W 19:47:56 59° NNW 19:52:58 32° NE visible
08 Feb 8.4 21:44:31 10° WNW 21:51:00 42° NW 21:51:00 42° NW visible
09 Feb 7.8 19:13:09 10° W 19:22:39 61° NNW 19:29:13 24° ENE visible
09 Feb 8.0 21:19:15 10° WNW 21:27:15 51° NNW 21:27:15 51° NNW visible
09 Feb 9.7 23:24:29 10° WNW 23:25:16 13° WNW 23:25:16 13° WNW visible
10 Feb 7.8 18:47:53 10° W 18:57:21 63° NNW 19:05:28 17° ENE visible
10 Feb 7.8 20:53:59 10° WNW 21:03:29 54° N 21:03:29 54° N visible
10 Feb 9.4 22:59:16 10° WNW 23:01:30 19° WNW 23:01:30 19° WNW visible
11 Feb 7.8 18:22:37 10° WSW 18:32:04 66° NNW 18:41:42 11° ENE visible
11 Feb 7.8 20:28:42 10° WNW 20:38:13 54° N 20:39:43 50° NNE visible
11 Feb 9.0 22:34:03 10° WNW 22:37:45 27° WNW 22:37:45 27° WNW visible
12 Feb 7.9 20:03:26 10° WNW 20:12:53 53° N 20:15:57 41° NE visible
12 Feb 8.6 22:08:50 10° WNW 22:13:58 36° NW 22:13:58 36° NW visible
13 Feb 7.9 19:38:10 10° WNW 19:47:33 53° N 19:52:11 32° ENE visible
13 Feb 8.2 21:43:38 10° WNW 21:50:12 48° NW 21:50:12 48° NW visible
14 Feb 8.0 19:12:53 10° WNW 19:22:14 53° N 19:28:25 24° ENE visible
14 Feb 7.8 21:18:25 10° WNW 21:26:27 61° NNW 21:26:27 61° NNW visible
14 Feb 9.6 23:23:29 10° WNW 23:24:28 14° WNW 23:24:28 14° WNW visible
15 Feb 8.0 18:47:36 10° WNW 18:56:54 53° N 19:04:41 17° ENE visible
15 Feb 7.6 20:53:12 10° WNW 21:02:42 69° NNE 21:02:42 69° NNE visible
15 Feb 9.3 22:58:13 10° WNW 23:00:44 20° WNW 23:00:44 20° WNW visible
